[[{"header":{"parameterUnit":"m.s-1","parameterCategory":1,"la1":30.2991,"la2":30.254,"lo1":-89.0895,"lo2":-89.0444,"dy":0.0017,"dx":0.0017,"nx":28,"ny":28,"refTime":"2025-06-19T21:00:00:Z","depth":0,"parameterNumber":2,"parameterNumberName":"U-component_of_WINDS"},"data":[0,0,0,0,0,0,0,0,0,0,0,0,0,0,0,0,0,0,0,0,0,0,0,0,0,0,0,0,0,0,0,0,0,0,0,0,0,0,0,0,0,0,0,0,0,0,0,0,0,0,0,0,0,0,0,0,0,0,4.4121,4.4122,0,4.4184,4.4185,4.4186,4.4076,4.4072,4.4068,4.4065,4.4132,4.4137,4.4143,0,0,0,0,0,0,0,0,0,0,0,0,0,4.3906,4.3911,4.4121,4.4122,4.4123,4.4184,4.4185,4.4186,4.4076,4.4072,4.4067,4.4063,4.413,4.4137,4.4143,0,0,0,0,0,0,0,0,0,0,0,0,0,4.3988,4.3912,4.4121,4.4075,4.4072,4.4184,4.4185,4.4186,4.4077,4.4072,4.4066,4.4061,4.4128,4.4136,4.4144,4.4305,0,0,4.4168,4.4171,0,0,0,0,0,0,0,0,4.3983,4.3996,4.4081,4.4079,4.4075,4.4116,4.4134,4.4226,4.4079,4.4075,4.4064,4.4058,4.4132,4.4139,4.4163,4.4308,4.4311,4.4169,4.4174,4.4177,4.4179,0,0,0,0,0,0,0,4.3978,4.3992,4.4146,4.4083,4.4079,4.4052,4.4057,4.4151,4.4134,4.4075,4.4067,4.4076,4.4129,4.4156,4.4164,4.4312,4.4169,4.4176,4.418,4.4184,4.4588,4.4594,0,0,0,0,0,0,4.3977,4.3988,4.4144,4.4148,4.4014,4.406,4.4066,4.4109,4.4133,4.4131,4.4081,4.4071,4.4145,4.4155,4.4166,4.4353,4.4177,4.4184,4.4189,4.4582,4.459,4.4596,0,0,0,0,0,0,4.3973,4.3992,4.4142,4.4066,4.4083,4.407,4.4118,4.4113,4.414,4.4137,4.4134,4.4111,4.4141,4.4155,4.427,4.4354,4.4188,4.4195,4.4575,4.4584,4.4593,4.4731,0,0,0,0,0,0,4.3967,4.3991,4.4052,4.4068,4.4087,4.4245,4.4124,4.4118,4.4153,4.4141,4.4165,4.4163,4.4138,4.4259,4.4278,4.4362,4.4201,4.4568,4.4579,4.459,4.4719,4.4744,4.4765,0,0,0,0,0,4.396,4.409,4.4056,4.4076,4.4163,4.425,4.4261,4.4228,4.4161,4.4221,4.4219,4.4163,4.4342,4.4272,4.4292,4.438,4.4562,4.4576,4.4589,4.4708,4.4739,4.4764,0,0,0,0,0,0,4.4086,4.4091,4.4054,4.4193,4.4222,4.4231,4.4307,4.4262,4.4311,4.4297,4.4255,4.4261,4.4385,4.4394,4.4315,4.4535,4.4441,4.4459,4.4524,4.4553,4.4576,4.457,4.4208,0,0,0,0,0,4.413,4.42,4.4201,4.4323,4.4339,4.4321,4.4358,4.4329,4.4358,4.437,4.4376,4.4407,4.4469,4.4512,4.457,4.472,4.4722,4.479,4.4813,4.4832,4.4848,4.4925,4.4954,4.464,4.464,4.464,0,0,4.4222,4.4233,4.428,4.4349,4.4368,4.444,4.4332,4.4415,4.4468,4.4383,4.4491,4.4497,4.4528,4.4661,4.4719,4.4672,4.4935,4.4849,4.4864,4.487,4.4942,4.4971,4.4998,4.465,4.4648,4.4646,0,0,4.4425,4.4441,4.4544,4.4564,4.4594,4.458,4.4605,4.4622,4.4621,4.4729,4.4666,4.4729,4.4839,4.4863,4.4889,4.5099,4.5048,4.512,4.5239,4.5315,4.5339,4.5361,4.5434,4.546,4.5136,4.5136,4.5136,0,4.4535,4.4641,4.4602,4.4688,4.4719,4.4644,4.4747,4.4769,4.4817,4.484,4.4787,4.4921,4.4937,4.5072,4.5123,4.5148,4.5174,4.5116,4.5339,4.536,4.538,4.5449,4.5476,4.5144,4.5144,4.5143,4.5142,0,4.4774,4.4849,4.4928,4.4974,4.5014,4.5109,4.5083,4.5129,4.5097,4.5089,4.5199,4.5215,4.5273,4.5304,4.5274,4.5435,4.5404,4.5346,4.525,4.5419,4.5482,4.5509,4.5156,4.5153,4.5151,4.5149,0,0,4.506,4.508,4.511,4.5129,4.5155,4.5212,4.5302,4.5357,4.5396,4.5432,4.5505,4.5599,4.5543,4.5574,4.5546,4.5613,4.5775,4.5546,4.5546,4.5586,4.5949,4.5992,4.6023,4.5741,4.5746,4.575,4.5946,0,4.526,4.5413,4.538,4.5531,4.5598,4.5527,4.5605,4.563,4.5625,4.5681,4.5675,4.5741,4.5665,4.5682,4.5745,4.5742,4.5847,4.5728,4.5808,4.5811,4.58,4.6057,4.6102,4.6286,4.5971,4.5975,4.5978,0,4.5514,4.5556,4.5714,4.5726,4.5753,4.5824,4.5871,4.5926,4.5951,4.5943,4.5975,4.5934,4.6022,4.5926,4.6046,4.5966,4.5997,4.6,4.6006,4.6011,4.5904,4.6066,4.6344,4.6371,4.6017,4.6014,4.6011,0,4.5704,4.58,4.5906,4.5924,4.5942,4.5993,4.6003,4.6023,4.6057,4.6099,4.612,4.6173,4.6201,4.6241,4.6215,4.6148,4.6339,4.6241,4.6333,4.6334,4.6375,4.6373,4.666,4.6399,4.6399,4.6398,4.6398,0,4.593,4.6028,4.5991,4.6056,4.6163,4.6124,4.6232,4.6233,4.6251,4.6315,4.6257,4.6318,4.628,4.6338,4.6318,4.6419,4.6433,4.6427,4.642,4.6431,4.6432,4.645,4.6436,4.6405,4.6404,4.6402,4.6401,0,4.6159,4.6138,4.6248,4.6255,4.6259,4.6338,4.6344,4.6404,4.6393,4.6475,4.6491,4.6476,4.654,4.6518,4.6588,4.6574,4.6702,4.668,4.6693,4.6686,4.6778,4.6769,4.7086,4.7124,4.6841,4.6844,4.6846,0,4.6304,4.6378,4.6392,4.6429,4.6443,4.6505,4.6539,4.6503,4.6541,4.6574,4.6629,4.6689,4.6734,4.684,4.6835,4.6888,4.6865,4.6972,4.6872,4.688,4.6863,4.6858,4.6864,4.6992,4.6995,4.6998,4.7,0,4.6563,4.6548,4.6599,4.6646,4.6688,4.6724,4.6755,4.6789,4.6754,4.68,4.6864,4.6899,4.6968,4.7027,4.7074,4.7084,4.7036,4.7031,4.7055,4.7066,4.7069,4.7066,4.6745,4.7024,4.7022,4.702,4.7019,4.7018,4.6753,4.6814,4.6832,4.689,4.6909,4.6938,4.6994,4.6989,4.7042,4.7095,4.707,4.7144,4.7165,4.7222,4.7239,4.7296,4.7254,4.7289,4.7297,4.7306,4.7317,4.7062,4.7305,4.7304,4.7303,4.7303,4.7302,0,4.7006,4.7014,4.7068,4.7111,4.7156,4.7106,4.7137,4.7178,4.7243,4.7267,4.7311,4.7384,4.744,4.7438,4.749,4.7536,4.7515,4.755,4.7546,4.7548,4.7352,4.7325,4.7566,4.7566,4.7566,4.7566,4.7566,4.7566,4.7143,4.7243,4.723,4.7337,4.7344,4.7415,4.7436,4.7462,4.748,4.7563,4.7609,4.7607,4.762,4.7671,4.772,4.7718,4.7738,4.7782,4.7772,4.7589,4.7562,4.7537,4.7512,4.7787,4.7788,4.7962,4.7963,4.7965]},{"header":{"parameterUnit":"m.s-1","parameterCategory":1,"la1":30.2991,"la2":30.254,"lo1":-89.0895,"lo2":-89.0444,"dy":0.0017,"dx":0.0017,"nx":28,"ny":28,"refTime":"2025-06-19T21:00:00:Z","depth":0,"parameterNumber":3,"parameterNumberName":"V-component_of_WINDS"},"data":[0,0,0,0,0,0,0,0,0,0,0,0,0,0,0,0,0,0,0,0,0,0,0,0,0,0,0,0,0,0,0,0,0,0,0,0,0,0,0,0,0,0,0,0,0,0,0,0,0,0,0,0,0,0,0,0,0,0,0.5312,0.5313,0,0.5443,0.5445,0.5446,0.5488,0.5488,0.5487,0.5486,0.5627,0.5631,0.5636,0,0,0,0,0,0,0,0,0,0,0,0,0,0.5103,0.5106,0.5312,0.5313,0.5315,0.5443,0.5445,0.5447,0.5488,0.5488,0.5487,0.5486,0.5626,0.5631,0.5636,0,0,0,0,0,0,0,0,0,0,0,0,0,0.521,0.5107,0.5312,0.5351,0.5356,0.5443,0.5445,0.5447,0.5489,0.5488,0.5487,0.5486,0.5624,0.563,0.5637,0.5695,0,0,0.5657,0.5659,0,0,0,0,0,0,0,0,0.5204,0.5217,0.5344,0.5349,0.5354,0.5448,0.5423,0.5531,0.5489,0.5438,0.5486,0.5485,0.5569,0.558,0.5607,0.5702,0.5708,0.5657,0.5661,0.5664,0.5666,0,0,0,0,0,0,0,0.5196,0.5212,0.5364,0.5346,0.5352,0.5364,0.5378,0.5443,0.5508,0.5443,0.5446,0.5461,0.5572,0.56,0.561,0.571,0.5657,0.5663,0.5667,0.5669,0.586,0.5861,0,0,0,0,0,0,0.5181,0.5205,0.536,0.5368,0.5275,0.5369,0.5385,0.5419,0.5507,0.5519,0.5461,0.5462,0.559,0.5603,0.5615,0.569,0.5664,0.567,0.5674,0.5859,0.586,0.5862,0,0,0,0,0,0,0.5176,0.5195,0.5355,0.5288,0.5309,0.5373,0.5412,0.5422,0.5451,0.5521,0.5533,0.5479,0.5589,0.5606,0.5675,0.5695,0.5673,0.5679,0.5858,0.586,0.5861,0.5839,0,0,0,0,0,0,0.517,0.5193,0.5214,0.5288,0.5312,0.541,0.5413,0.5425,0.5461,0.5464,0.554,0.5552,0.559,0.5665,0.5681,0.5704,0.5684,0.5856,0.5858,0.5861,0.5838,0.584,0.5841,0,0,0,0,0,0.5163,0.5204,0.5215,0.5234,0.534,0.5411,0.5425,0.5466,0.5463,0.5486,0.5531,0.555,0.569,0.5671,0.569,0.5715,0.5855,0.5858,0.586,0.5838,0.584,0.5841,0,0,0,0,0,0,0.5134,0.5215,0.5228,0.5294,0.5345,0.5418,0.5449,0.5467,0.5522,0.5522,0.5573,0.559,0.5654,0.5692,0.567,0.5777,0.5774,0.578,0.575,0.5752,0.5754,0.5744,0.5689,0,0,0,0,0,0.5135,0.5184,0.5252,0.5304,0.5329,0.5384,0.5416,0.5443,0.5499,0.5522,0.5572,0.5627,0.5683,0.572,0.5776,0.5843,0.5861,0.587,0.5871,0.5872,0.5878,0.5917,0.5922,0.5871,0.5871,0.587,0,0,0.5138,0.5188,0.5217,0.53,0.5342,0.5393,0.5402,0.5456,0.5495,0.5531,0.5598,0.5636,0.5701,0.5769,0.5802,0.5803,0.5896,0.5876,0.5876,0.5881,0.592,0.5925,0.5929,0.5872,0.5872,0.5872,0,0,0.517,0.5213,0.526,0.5302,0.5366,0.5402,0.5414,0.5484,0.551,0.5578,0.5605,0.5653,0.575,0.5795,0.583,0.5878,0.5898,0.5895,0.5903,0.5941,0.5945,0.5949,0.5966,0.5972,0.59,0.59,0.59,0,0.5167,0.5243,0.5283,0.5335,0.5371,0.5403,0.5453,0.5493,0.5572,0.5597,0.5596,0.5717,0.5763,0.5842,0.5854,0.5881,0.5897,0.5887,0.594,0.5945,0.5949,0.5967,0.5973,0.5899,0.5899,0.5899,0.5899,0,0.5236,0.5289,0.532,0.5393,0.5433,0.5483,0.5533,0.5568,0.5591,0.5628,0.5697,0.5753,0.5821,0.5841,0.5866,0.5924,0.5923,0.593,0.5928,0.5952,0.597,0.5977,0.5898,0.5898,0.5899,0.5899,0,0,0.5256,0.5349,0.536,0.5394,0.5466,0.5508,0.556,0.5624,0.5654,0.5708,0.5754,0.5834,0.5841,0.5881,0.5911,0.5943,0.5978,0.5947,0.595,0.5952,0.6047,0.6041,0.6048,0.5991,0.5992,0.5993,0.6042,0,0.5298,0.539,0.5427,0.5503,0.5552,0.5583,0.5629,0.5679,0.5714,0.5763,0.5803,0.5859,0.5864,0.5888,0.5922,0.5966,0.5998,0.5963,0.6036,0.6038,0.6019,0.6057,0.6052,0.6095,0.6049,0.605,0.6051,0,0.5359,0.5411,0.5491,0.5556,0.5578,0.5618,0.568,0.5725,0.5783,0.5807,0.5851,0.5878,0.5935,0.5928,0.6009,0.5985,0.6017,0.6043,0.6046,0.6055,0.6046,0.6069,0.6109,0.6116,0.6062,0.6061,0.606,0,0.5366,0.5456,0.5515,0.5543,0.5621,0.5648,0.5682,0.5739,0.5775,0.5829,0.5853,0.5914,0.5948,0.5995,0.6039,0.6029,0.6116,0.6112,0.6138,0.6137,0.6156,0.6155,0.6203,0.6175,0.6175,0.6174,0.6174,0,0.541,0.5458,0.5519,0.5555,0.561,0.5653,0.5707,0.5743,0.5793,0.5839,0.587,0.5912,0.5966,0.6016,0.6051,0.6113,0.6128,0.615,0.6158,0.6147,0.6145,0.617,0.6168,0.6176,0.6176,0.6176,0.6175,0,0.5427,0.547,0.5536,0.5604,0.5622,0.5659,0.5718,0.5755,0.5791,0.5849,0.5865,0.5922,0.5983,0.603,0.6109,0.6133,0.6198,0.6207,0.6178,0.6183,0.6206,0.6203,0.6274,0.6285,0.6248,0.6248,0.6248,0,0.5452,0.549,0.556,0.5591,0.5624,0.5675,0.5711,0.5755,0.5791,0.5859,0.5889,0.5951,0.6003,0.6098,0.6148,0.6209,0.622,0.6241,0.623,0.6217,0.6222,0.6219,0.6224,0.6242,0.6242,0.6243,0.6243,0,0.5493,0.5512,0.5562,0.5619,0.566,0.5708,0.5757,0.5781,0.5834,0.5874,0.5934,0.5974,0.6054,0.6115,0.6181,0.6218,0.624,0.6245,0.6255,0.6244,0.6226,0.6237,0.6182,0.6244,0.6244,0.6244,0.6244,0.6244,0.5516,0.555,0.5605,0.5659,0.57,0.5744,0.5782,0.5822,0.5873,0.5939,0.5962,0.6025,0.6082,0.6172,0.621,0.626,0.6262,0.6275,0.6279,0.6282,0.6281,0.6216,0.6273,0.6273,0.6273,0.6273,0.6273,0,0.5559,0.5595,0.5644,0.571,0.5753,0.5767,0.5821,0.5857,0.591,0.5961,0.601,0.608,0.614,0.6194,0.6256,0.6286,0.6298,0.6301,0.63,0.6309,0.6276,0.6261,0.6291,0.6291,0.6291,0.6291,0.6291,0.6291,0.5586,0.5645,0.567,0.575,0.5787,0.5846,0.5876,0.5917,0.5958,0.6033,0.6082,0.6116,0.6168,0.6234,0.629,0.6305,0.6327,0.6328,0.6345,0.6313,0.6311,0.6309,0.6296,0.6332,0.6332,0.6374,0.6374,0.6374]}]]